Weather History for Gage, OK

Change the Weather History Date:

Monday, January 16, 2012

  Actual Average Record
Temperature  
Mean Temperature 56 °F -  
Max Temperature 73 °F 48 °F 73 °F (1952)
Min Temperature 32 °F 22 °F 2 °F (1984)
Degree Days  
Heating Degree Days 9    
Growing Degree Days 6 (Base 50)    
Moisture  
Dew Point 31 °F    
Average Humidity 39    
Maximum Humidity 69    
Minimum Humidity 22    
Precipitation  
Precipitation 0.00 in - - ()
Sea Level Pressure  
Sea Level Pressure 29.70 in    
Wind  
Wind Speed 19 mph (WSW)    
Max Wind Speed 34 mph    
Max Gust Speed 44 mph    
Visibility 10 miles    
Events      
Averages and records for this station are not official NWS values.
T = Trace of Precipitation, MM = Missing Value Source: NWS Daily Summary

Daily Weather History Graph

Daily Weather History Graph

Search for Another Location

Airport:

Trip Planner

Search our weather history database for the weather conditions in past years. The results will help you decide how hot, cold, wet, or windy it might be!

Date:

Astronomy

Jan. 16, 2012 Rise Set
Actual Time 7:49 AM CST 5:48 PM CST
Civil Twilight 7:21 AM CST 6:16 PM CST
Nautical Twilight 6:49 AM CST 6:47 PM CST
Astronomical Twilight 6:19 AM CST 7:18 PM CST
Moon 1:03 AM CST (1/16) 12:00 PM CST (1/16)
Length of Visible Light 10h 54m
Length of Day
9h 58m
Last Quarter, 46% of the Moon is Illuminated
Jan 16
Last Quarter
Jan 23
New
Jan 30
First Quarter
Feb 7
Full
Feb 14
Last Quarter

Hourly Weather History & Observations

Time (CST) Temp. Windchill Dew Point Humidity Pressure Visibility Wind Dir Wind Speed Gust Speed Precip Events Conditions
12:53 AM 51.1 °F - 26.1 °F 38% 29.72 in 10.0 mi SSW 18.4 mph - N/A   Clear
1:53 AM 48.9 °F - 26.1 °F 41% 29.73 in 10.0 mi SW 13.8 mph - N/A   Clear
2:53 AM 48.9 °F - 26.1 °F 41% 29.72 in 10.0 mi SW 17.3 mph - N/A   Clear
3:53 AM 52.0 °F - 26.1 °F 37% 29.72 in 10.0 mi SW 17.3 mph - N/A   Clear
4:53 AM 46.9 °F - 27.0 °F 46% 29.72 in 10.0 mi SW 11.5 mph - N/A   Clear
5:53 AM 48.9 °F - 28.9 °F 46% 29.73 in 10.0 mi SW 12.7 mph - N/A   Clear
6:53 AM 51.1 °F - 32.0 °F 48% 29.75 in 10.0 mi SW 16.1 mph - N/A   Clear
7:53 AM 52.0 °F - 32.0 °F 47% 29.75 in 10.0 mi WSW 15.0 mph - N/A   Clear
8:53 AM 54.0 °F - 32.0 °F 43% 29.78 in 10.0 mi WSW 16.1 mph - N/A   Clear
9:53 AM 57.0 °F - 32.0 °F 39% 29.78 in 10.0 mi WSW 13.8 mph - N/A   Clear
10:53 AM 62.6 °F - 33.8 °F 34% 29.80 in 10.0 mi SW 17.3 mph - N/A   Clear
11:53 AM 69.1 °F - 34.0 °F 27% 29.73 in 10.0 mi WSW 21.9 mph 35.7 mph N/A   Clear
12:53 PM 72.0 °F - 35.1 °F 26% 29.67 in 10.0 mi WSW 24.2 mph 32.2 mph N/A   Scattered Clouds
1:53 PM 73.0 °F - 35.1 °F 25% 29.63 in 10.0 mi WSW 27.6 mph 40.3 mph N/A   Clear
2:53 PM 73.9 °F - 36.0 °F 25% 29.59 in 10.0 mi WSW 34.5 mph 43.7 mph N/A   Clear
3:53 PM 73.9 °F - 33.1 °F 22% 29.58 in 10.0 mi SW 29.9 mph 42.6 mph N/A   Partly Cloudy
4:53 PM 72.0 °F - 32.0 °F 23% 29.58 in 10.0 mi WSW 26.5 mph 33.4 mph N/A   Clear
5:53 PM 68.0 °F - 33.1 °F 27% 29.60 in 10.0 mi WSW 29.9 mph 40.3 mph N/A   Clear
6:53 PM 63.0 °F - 36.0 °F 37% 29.62 in 10.0 mi SW 19.6 mph - N/A   Clear
7:53 PM 60.1 °F - 37.0 °F 42% 29.64 in 10.0 mi SSW 13.8 mph - N/A   Clear
8:53 PM 57.0 °F - 36.0 °F 45% 29.65 in 10.0 mi SSW 16.1 mph - N/A   Clear
9:53 PM 59.0 °F - 32.0 °F 36% 29.68 in 10.0 mi WSW 15.0 mph - N/A   Clear
10:53 PM 52.0 °F - 30.9 °F 45% 29.75 in 10.0 mi North 24.2 mph 28.8 mph N/A   Clear
11:00 PM 39.2 °F 29.3 °F 28.4 °F 65% 29.80 in 10.0 mi North 20.7 mph 28.8 mph N/A   Clear
11:53 PM 32.0 °F 18.9 °F 23.0 °F 69% 29.88 in 10.0 mi North 24.2 mph 32.2 mph N/A   Clear